Regional Weather Roundup
Issued by NWS

Home | Current Version | Previous Version | Text Only | Print | Product List | Glossary Off
Versions: 1 2 3 4 5 6 7 8 9 10 11 12 13 14 15 16 17 18 19 20 21 22 23 24 25 26 27

000
ASUS45 KSLC 280010
RWRUT

UTAH REGIONAL WEATHER ROUNDUP
NATIONAL WEATHER SERVICE SALT LAKE CITY UT
600 PM MDT MON MAR 27 2017

UTZ001>011-023>025-280100-

NORTHERN UTAH

CITY           SKY/WX    TMP DP  RH WIND       PRES   REMARKS
BRIGHAM CITY     N/A     47  37  68 N7        29.91R
HILL AFB       LGT RAIN  43  39  85 N13       29.87S
LOGAN          CLOUDY    44  40  85 NW6       29.91R
OGDEN          LGT RAIN  43  38  82 N15       29.87R
SALT LAKE CITY LGT RAIN  44  41  89 N13       29.88R
TOOELE VALLEY  DRIZZLE   45  43  93 NW9       29.89R
WENDOVER       CLOUDY    52  26  36 N20G26    29.92R
HEBER CITY     MIX PCPN  36  34  93 CALM      29.85R
WEST JORDAN    CLOUDY    45  45 100 NW13      29.88S

$$

UTZ011>015-024>027-280100-

CENTRAL/NORTHEAST UTAH

CITY           SKY/WX    TMP DP  RH WIND       PRES   REMARKS
PROVO AIRPORT  LGT RAIN  42  39  89 N7        29.87S
MOAB/CANYONLAN MOSUNNY   64  27  24 E7        29.66F
DELTA          CLOUDY    41  37  87 S6        29.87S
PRICE          RAIN      39  37  92 CALM      29.81R FOG
ROOSEVELT      DRIZZLE   45  37  76 N7        29.82F
VERNAL         CLOUDY    44  38  79 N8        29.81F

$$

UTZ013>016-019>022-027-280100-

SOUTHERN UTAH

CITY           SKY/WX    TMP DP  RH WIND       PRES   REMARKS
BRYCE CANYON   PTSUNNY   41  28  60 W25G35    29.80S
CEDAR CITY     SNOW      32  32 100 CALM      29.91R VSB 1/2
MILFORD        SNOW      33  32  96 NE3       29.90R VSB 1/2
ST GEORGE      CLOUDY    57  35  43 W21G28    29.82S
HANKSVILLE     CLOUDY    54  36  50 S6        29.75F
BLANDING       PTSUNNY   51  36  56 N9        29.84F

$$

REGIONAL REPORTS     COLORADO/ARIZONA

CITY           SKY/WX    TMP DP  RH WIND       PRES   REMARKS
CRAIG, CO      CLOUDY    45  36  70 N9        29.83F
GRAND JUNCTION PTSUNNY   59  28  30 CALM      29.72F
RIFLE, CO      CLOUDY    58  26  29 W9        29.75F
MONTROSE, CO   CLOUDY    55  31  39 W18G24    29.78F
CORTEZ, CO     CLOUDY    55  30  38 SE9       29.80F
COLORADO CITY    N/A     52  34  50 W17       29.86S
PAGE, AZ       CLOUDY    62  33  33 NW16G24   29.70R
GRAND CANYON   CLOUDY    53  16  23 W15G32    29.81F
KINGMAN, AZ    CLOUDY    63  19  18 SW21      29.80F
FLAGSTAFF, AZ  NOT AVBL

$$

REGIONAL REPORTS    NEVADA/IDAHO/WYOMING

CITY           SKY/WX    TMP DP  RH WIND       PRES   REMARKS
LAS VEGAS, NV  PTSUNNY   67  35  30 N14G22    29.79R
ELY, NY        LGT SNOW  35  33  92 N12       29.96R WCI  27
ELKO, NV       MOSUNNY   47  22  37 NW17      30.02R
POCATELLO, ID  CLOUDY    48  36  63 SW14      29.93S
BURLEY, ID     MOSUNNY   50  27  40 W17G37    29.94R
FORT BRIDGER,  LGT RAIN  37  37 100 NW6       29.87R WCI  32
EVANSTON, WY   SNOW      32  30  92 N17       29.85R VSB 1/4 WCI  21
ROCK SPRINGS,  CLOUDY    38  35  89 NE12      29.84S WCI  30
KEMMERER, WY   LGT SNOW  34  32  93 NW9       29.87S WCI  26

$$




USA.gov is the U.S. government's official web portal to all federal, state and local government web resources and services.